User: anonymous   Login
Location: Campillo
(40.8621°N, 4.2488°W)
Time: 09:31:16
(UTC+00:00)
Language:

Intercosmos 25 Rocket - Orbit

View from above orbital plane
View from above orbital plane
View from above satellite
View from above satellite

Ground track
Ground track

The orbit data is extracted from the following two-line orbital elements,

1 21820U 91086B   21216.64883910  .00000054  00000-0  74401-5 0  9998
2 21820  82.5630 307.8926 1575512   1.0806 359.3059 11.93597044286840
Epoch (UTC): 04 August 2021 15:34:19
Eccentricity: 0.1575512
inclination: 82.5630°
perigee height: 435 km
apogee height: 2984 km
right ascension of ascending node: 307.8926°
argument of perigee: 1.0806°
revolutions per day: 11.93597044
mean anomaly at epoch: 359.3059°
orbit number at epoch: 28684

The dashed part of the orbit path shows where the satellite is in the earth's shadow,  

DLR